Long Beach, CA

2:25 PM PDT on August 28, 2016 (GMT -0700)
Long Beach

Weather History for KLGB - June, 2014

Change the Weather History Date:

Monday, June 23, 2014

  Actual Average Record
Temperature  
Mean Temperature 70 °F 70 °F  
Max Temperature 74 °F 78 °F 102 °F (1976)
Min Temperature 65 °F 62 °F 56 °F (1962)
Degree Days  
Heating Degree Days 0 0  
Month to date heating degree days 0 3  
Since 1 June heating degree days 0 3  
Since 1 July heating degree days 716 1216  
Cooling Degree Days 5 5  
Month to date cooling degree days 102 80  
Year to date cooling degree days 371 183  
Since 1 June cooling degree days 102 80  
Growing Degree Days 18 (Base 50)    
Moisture  
Dew Point 56 °F    
Average Humidity 66    
Maximum Humidity 78    
Minimum Humidity 53    
Precipitation  
Precipitation 0.00 in 0.00 in 0.00 in (2016)
Month to date precipitation 0.00 0.06  
Year to date precipitation 3.19 8.43  
Since 1 July precipitation 4.50  
Sea Level Pressure  
Sea Level Pressure 29.92 in    
Wind  
Wind Speed 6 mph (South)    
Max Wind Speed 13 mph    
Max Gust Speed 17 mph    
Visibility 10 miles    
Events      
T = Trace of Precipitation, MM = Missing Value Source: NWS Daily Summary

Daily Weather History Graph

Daily Weather History Graph

Search for Another Location

Airport or City:

Trip Planner

Search our weather history database for the weather conditions in past years. The results will help you decide how hot, cold, wet, or windy it might be!

Date:

Astronomy

Jun. 23, 2014 Rise Set
Actual Time 5:42 AM PDT 8:06 PM PDT
Civil Twilight 5:13 AM PDT 8:36 PM PDT
Nautical Twilight 4:37 AM PDT 9:11 PM PDT
Astronomical Twilight 3:58 AM PDT 9:51 PM PDT
Moon 3:04 AM PDT (6/23) 4:58 PM PDT (6/23)
Length of Visible Light 15h 22m
Length of Day
14h 24m
Waning Crescent, 12% of the Moon is Illuminated
Jun 23
Waning Crescent
Jun 27
New
Jul 5
First Quarter
Jul 12
Full
Jul 18
Last Quarter

Hourly Weather History & Observations

Time (PDT) Temp. Dew Point Humidity Pressure Visibility Wind Dir Wind Speed Gust Speed Precip Events Conditions
12:53 AM 66.9 °F 59.0 °F 76% 29.89 in 9.0 mi East 3.5 mph - N/A   Overcast
1:53 AM 66.9 °F 57.9 °F 73% 29.89 in 9.0 mi SSW 4.6 mph - N/A   Overcast
2:53 AM 66.0 °F 57.0 °F 73% 29.89 in 10.0 mi South 3.5 mph - N/A   Overcast
3:53 AM 66.0 °F 57.0 °F 73% 29.88 in 10.0 mi Calm Calm - N/A   Overcast
4:53 AM 64.9 °F 55.0 °F 70% 29.88 in 10.0 mi SE 3.5 mph - N/A   Overcast
5:53 AM 66.0 °F 55.0 °F 68% 29.89 in 10.0 mi South 3.5 mph - N/A   Overcast
6:53 AM 66.9 °F 55.0 °F 66% 29.91 in 10.0 mi SE 3.5 mph - N/A   Overcast
7:53 AM 68.0 °F 55.0 °F 63% 29.93 in 10.0 mi SSE 4.6 mph - N/A   Overcast
8:53 AM 68.0 °F 55.9 °F 65% 29.94 in 10.0 mi SSW 5.8 mph - N/A   Overcast
9:53 AM 70.0 °F 55.9 °F 61% 29.95 in 10.0 mi Variable 4.6 mph - N/A   Overcast
10:53 AM 72.0 °F 57.0 °F 59% 29.95 in 10.0 mi SW 8.1 mph - N/A   Mostly Cloudy
11:12 AM 71.6 °F 57.2 °F 60% 29.95 in 10.0 mi South 8.1 mph - N/A   Partly Cloudy
11:53 AM 72.0 °F 57.0 °F 59% 29.95 in 10.0 mi SSE 5.8 mph - N/A   Clear
12:53 PM 73.0 °F 55.9 °F 55% 29.95 in 10.0 mi SSW 10.4 mph - N/A   Clear
1:53 PM 73.4 °F 55.4 °F 53% 29.94 in 10.0 mi SSW 9.2 mph 16.1 mph N/A   Clear
2:53 PM 73.4 °F 55.4 °F 53% 29.93 in 10.0 mi South 9.2 mph - N/A   Clear
3:53 PM 73.9 °F 55.9 °F 53% 29.91 in 10.0 mi Variable 6.9 mph - N/A   Clear
4:53 PM 73.0 °F 55.0 °F 53% 29.90 in 10.0 mi South 8.1 mph - N/A   Clear
5:53 PM 73.0 °F 55.0 °F 53% 29.89 in 10.0 mi South 9.2 mph - N/A   Clear
6:53 PM 72.0 °F 54.0 °F 53% 29.89 in 10.0 mi South 5.8 mph - N/A   Clear
7:53 PM 71.1 °F 55.9 °F 59% 29.90 in 10.0 mi WNW 8.1 mph - N/A   Clear
8:53 PM 68.0 °F 57.9 °F 70% 29.92 in 10.0 mi NW 8.1 mph - N/A   Clear
9:53 PM 66.0 °F 57.9 °F 75% 29.94 in 10.0 mi NW 8.1 mph - N/A   Clear
10:53 PM 66.0 °F 57.9 °F 75% 29.94 in 9.0 mi NW 5.8 mph - N/A   Clear
11:53 PM 64.9 °F 57.0 °F 75% 29.93 in 9.0 mi Calm Calm - N/A   Clear